TimeEDT,TemperatureF,Dew PointF,Humidity,Sea Level PressureIn,VisibilityMPH,Wind Direction,Wind SpeedMPH,Gust SpeedMPH,PrecipitationIn,Events,Conditions,WindDirDegrees,DateUTC
12:15 AM,44.6,21.2,39,30.25,10.0,SSE,4.6,-,N/A,,Clear,150,2013-03-11 04:15:00
12:35 AM,44.6,21.2,39,30.25,10.0,SSE,3.5,-,N/A,,Clear,150,2013-03-11 04:35:00
12:55 AM,42.8,23.0,46,30.24,10.0,SSE,4.6,-,N/A,,Clear,160,2013-03-11 04:55:00
1:15 AM,42.8,26.6,53,30.24,10.0,SE,4.6,-,N/A,,Clear,130,2013-03-11 05:15:00
1:35 AM,42.8,28.4,57,30.23,10.0,SE,4.6,-,N/A,,Clear,130,2013-03-11 05:35:00
1:55 AM,41.0,28.4,61,30.25,10.0,Calm,Calm,-,N/A,,Clear,0,2013-03-11 05:55:00
2:15 AM,41.0,30.2,65,30.24,10.0,Calm,Calm,-,N/A,,Clear,0,2013-03-11 06:15:00
2:35 AM,39.2,32.0,75,30.23,10.0,Calm,Calm,-,N/A,,Clear,0,2013-03-11 06:35:00
2:55 AM,39.2,32.0,75,30.23,10.0,Calm,Calm,-,N/A,,Clear,0,2013-03-11 06:55:00
3:15 AM,41.0,33.8,76,30.23,10.0,Calm,Calm,-,N/A,,Clear,0,2013-03-11 07:15:00
3:35 AM,37.4,32.0,81,30.22,10.0,Calm,Calm,-,N/A,,Clear,0,2013-03-11 07:35:00
4:15 AM,39.2,35.6,87,30.21,10.0,Calm,Calm,-,N/A,,Clear,0,2013-03-11 08:15:00
4:35 AM,39.2,37.4,93,30.20,10.0,SE,3.5,-,N/A,,Clear,130,2013-03-11 08:35:00
4:55 AM,41.0,39.2,93,30.19,10.0,Calm,Calm,-,N/A,,Scattered Clouds,0,2013-03-11 08:55:00
5:15 AM,41.0,39.2,93,30.18,10.0,SSE,4.6,-,N/A,,Scattered Clouds,150,2013-03-11 09:15:00
5:35 AM,41.0,41.0,100,30.18,10.0,SSE,6.9,-,N/A,,Scattered Clouds,160,2013-03-11 09:35:00
5:55 AM,41.0,41.0,100,30.18,10.0,South,4.6,-,N/A,,Scattered Clouds,190,2013-03-11 09:55:00
6:15 AM,41.0,41.0,100,30.19,10.0,South,4.6,-,N/A,,Overcast,190,2013-03-11 10:15:00
6:35 AM,42.8,42.8,100,30.19,10.0,SSW,5.8,-,N/A,,Overcast,200,2013-03-11 10:35:00
6:45 AM,42.8,42.8,100,30.19,10.0,SSW,4.6,-,N/A,,Overcast,200,2013-03-11 10:45:00
6:50 AM,42.8,42.8,100,30.19,10.0,SSW,5.8,-,N/A,,Overcast,210,2013-03-11 10:50:00
7:52 AM,44.6,44.6,100,30.18,7.0,South,4.6,-,N/A,,Overcast,180,2013-03-11 11:52:00
8:50 AM,44.6,44.6,100,30.20,10.0,SSW,6.9,-,N/A,,Overcast,200,2013-03-11 12:50:00
9:50 AM,46.4,42.8,87,30.18,10.0,South,5.8,-,N/A,,Scattered Clouds,180,2013-03-11 13:50:00
10:50 AM,48.2,41.0,76,30.17,10.0,South,8.1,-,N/A,,Clear,180,2013-03-11 14:50:00
11:50 AM,53.6,41.0,62,30.16,10.0,SSW,8.1,-,N/A,,Clear,200,2013-03-11 15:50:00
12:50 PM,55.4,42.8,63,30.14,10.0,ESE,11.5,-,N/A,,Clear,120,2013-03-11 16:50:00
2:05 PM,57.2,42.8,59,30.10,10.0,SW,18.4,21.9,N/A,,Clear,220,2013-03-11 18:05:00
2:55 PM,59.0,44.6,59,30.07,10.0,South,10.4,-,N/A,,Clear,190,2013-03-11 18:55:00
3:47 PM,57.2,48.2,72,30.06,10.0,South,9.2,-,N/A,,Overcast,180,2013-03-11 19:47:00
5:55 PM,57.2,48.2,72,30.01,10.0,SSE,8.1,17.3,N/A,,Mostly Cloudy,160,2013-03-11 21:55:00
6:45 PM,55.4,48.2,77,30.02,10.0,SE,5.8,-,N/A,,Mostly Cloudy,140,2013-03-11 22:45:00
8:55 PM,53.6,48.2,82,30.00,10.0,ESE,3.5,-,N/A,,Overcast,120,2013-03-12 00:55:00
9:15 PM,53.6,48.2,82,30.00,10.0,ESE,4.6,-,N/A,,Overcast,120,2013-03-12 01:15:00
9:35 PM,53.6,48.2,82,30.00,10.0,SSE,4.6,-,N/A,,Overcast,160,2013-03-12 01:35:00
9:55 PM,53.6,48.2,82,29.99,10.0,SE,3.5,-,N/A,,Overcast,140,2013-03-12 01:55:00
10:15 PM,53.6,48.2,82,29.98,10.0,SSE,9.2,-,N/A,,Overcast,160,2013-03-12 02:15:00
10:35 PM,53.6,48.2,82,29.99,10.0,SSE,6.9,-,N/A,,Overcast,150,2013-03-12 02:35:00
10:55 PM,53.6,48.2,82,29.95,10.0,SE,9.2,-,N/A,Rain,Light Rain,130,2013-03-12 02:55:00
11:20 PM,53.6,48.2,82,29.95,10.0,SSE,6.9,-,N/A,,Overcast,160,2013-03-12 03:20:00
11:40 PM,53.6,48.2,82,29.94,10.0,SSE,13.8,-,N/A,,Overcast,150,2013-03-12 03:40:00